Location: Igri�s
(42.2144°N, 0.4320°W)
Time: 17:04:51
(UTC+00:00)

IRIDIUM 104 - Pass Details

Date: 13 August 2020
Orbit: 776 x 779 km, 86.4° (Epoch: 18 September)

Event Time Altitude Azimuth Distance (km) Brightness Sun altitude
Rises 19:56:18 0° 181° (S) 3,247 7.3 -9.5°
Reaches altitude 10° 19:58:38 10° 181° (S) 2,324 6.5 -9.8°
Maximum altitude 20:03:51 89° 275° (W) 785 4.4 -10.7°
Drops below altitude 10° 20:09:06 10° 3° (N) 2,340 7.2 -11.5°
Sets 20:11:28 0° 3° (N) 3,272 8.0 -11.9°
